Flag for U.S.A. Weather past 2 weeks in Wilmington, North Carolina, U.S.A.

Now
72 °F

Clear.


Feels Like: 68 °F
Forecast: 68 / 81 °F
Wind: 3 mph from North

Location: New Hanover International Airport

Current Time: Sep 17, 2014 at 2:10:38 AM

Latest Report: Sep 17, 2014 at 12:53 AM


Visibility: 10 mi

Pressure: 29.96 "Hg

Humidity: 93%

Dew point: 70 °F

Location of WilmingtonLocation

Historic Weather in Wilmington — Graph

°F

Wilmington temperature yesterday

Maximum temperature yesterday: 82 °F (at 11:53 AM)
Minimum temperature yesterday: 71 °F (at 1:53 AM)
Average temperature yesterday: 76 °F

Past Weeks' High & Low Weather Summary

 TemperatureHumidityPressure
High91 °F (Sep 2, 12:53 PM)100% (Sep 8, 6:53 AM)30.22 "Hg (Sep 8, 6:53 AM)
Low67 °F (Sep 14, 6:53 AM)54% (Sep 3, 2:53 PM)29.94 "Hg (Sep 16, 7:53 PM)
Average77 °F85%30.07 "Hg
* Reported Sep 2 12:53 AM — Sep 17 12:53 AM, Wilmington, Weather by CustomWeather, © 2014

Note: Actual official high and low records may vary slightly from our data, if they occured in-between our weather recording intervals... More about our weather records

Advertising

Wilmington weather history for previous 24 hours

 ConditionsComfort  
Time TempWeatherWind HumidityBarometerVisibility
12:53 AM
Sep 17
72 °FClear.3 mph93%29.96 "Hg10 mi
11:53 PM
Sep 16
73 °FPassing clouds.No wind94%29.96 "Hg10 mi
10:53 PM72 °FClear.3 mph93%29.95 "Hg10 mi
9:53 PM74 °FClear.3 mph91%29.95 "Hg10 mi
8:53 PM74 °FClear.3 mph91%29.96 "Hg10 mi
7:53 PM76 °FSunny.3 mph85%29.94 "Hg10 mi
6:53 PM78 °FPartly sunny.6 mph79%29.95 "Hg10 mi
5:53 PM81 °FSunny.7 mph69%29.95 "Hg10 mi
4:53 PM80 °FScattered clouds.7 mph74%29.95 "Hg10 mi
3:53 PM82 °FScattered clouds.6 mph72%29.96 "Hg10 mi
3:00 PM82 °FScattered clouds.10 mph74%29.97 "Hg10 mi
1:53 PM81 °FBroken clouds.8 mph74%29.98 "Hg10 mi
12:53 PM82 °FBroken clouds.6 mph72%30.00 "Hg10 mi
12:02 PM80 °FCloudy.9 mph76%30.03 "Hg10 mi
11:53 AM82 °FBroken clouds.8 mph74%30.03 "Hg10 mi
10:53 AM79 °FMostly cloudy.8 mph79%30.04 "Hg10 mi
9:53 AM76 °FOvercast.8 mph88%30.05 "Hg10 mi
8:53 AM75 °FBroken clouds.5 mph90%30.05 "Hg10 mi
7:53 AM72 °FOvercast.No wind97%30.04 "Hg10 mi
7:03 AM71 °FPassing clouds.No wind96%30.04 "Hg10 mi
6:53 AM71 °FPassing clouds.No wind96%30.03 "Hg10 mi
5:53 AM72 °FOvercast.No wind93%30.03 "Hg10 mi
4:53 AM72 °FMostly cloudy.No wind93%30.03 "Hg10 mi
3:53 AM72 °FOvercast.No wind91%30.04 "Hg10 mi
2:53 AM72 °FMostly cloudy.No wind87%30.06 "Hg10 mi
Weather by CustomWeather, © 2014

See weather overviewHow to use our weather pages